| time (UTC) | temp F | wind direction | speed MPH | gust MPH | rain 1hr in | rain 24hr in | rain mn in | humidity % | barometer mb |
| 20260903041056 | 52 | 15 | 1.0 | 10.0 | 0.00 | 0.00 | 0.00 | 60 | 1020.7 |
| 20260903040556 | 52 | 16 | 2.0 | 10.0 | 0.00 | 0.00 | 0.00 | 59 | 1020.7 |
| 20260903040105 | 52 | 15 | 3.0 | 8.0 | 0.00 | 0.00 | 0.00 | 58 | 1020.5 |
| 20260903035556 | 52 | 15 | 3.0 | 11.0 | 0.00 | 0.00 | 0.00 | 59 | 1020.5 |
| 20260903035057 | 52 | 15 | 2.0 | 11.0 | 0.00 | 0.00 | 0.00 | 60 | 1020.4 |
| 20260903034601 | 52 | 15 | 2.0 | 11.0 | 0.00 | 0.00 | 0.00 | 58 | 1020.3 |
| 20260903034057 | 52 | 5 | 2.0 | 12.0 | 0.00 | 0.00 | 0.00 | 58 | 1020.4 |
| 20260903033556 | 53 | 15 | 2.0 | 12.0 | 0.00 | 0.00 | 0.00 | 57 | 1020.3 |
| 20260903033103 | 53 | 15 | 3.0 | 14.0 | 0.00 | 0.00 | 0.00 | 56 | 1020.5 |
| 20260903032556 | 53 | 16 | 4.0 | 14.0 | 0.00 | 0.00 | 0.00 | 55 | 1020.3 |
| 20260903032057 | 53 | 9 | 3.0 | 13.0 | 0.00 | 0.00 | 0.00 | 56 | 1020.2 |
| 20260903031601 | 53 | 16 | 2.0 | 13.0 | 0.00 | 0.00 | 0.00 | 55 | 1020.3 |
| 20260903031056 | 53 | 11 | 3.0 | 8.0 | 0.00 | 0.00 | 0.00 | 57 | 1020.3 |
| 20260903030556 | 53 | 15 | 2.0 | 13.0 | 0.00 | 0.00 | 0.00 | 55 | 1020.2 |
| 20260903030108 | 53 | 16 | 4.0 | 13.0 | 0.00 | 0.00 | 0.00 | 56 | 1020.3 |
| 20260903025555 | 53 | 14 | 2.0 | 7.0 | 0.00 | 0.00 | 0.00 | 55 | 1020.3 |
| 20260903025100 | 53 | 11 | 3.0 | 8.0 | 0.00 | 0.00 | 0.00 | 54 | 1020.3 |
| 20260903024604 | 53 | 15 | 2.0 | 8.0 | 0.00 | 0.00 | 0.00 | 54 | 1020.3 |
| 20260903024057 | 53 | 15 | 2.0 | 8.0 | 0.00 | 0.00 | 0.00 | 55 | 1020.3 |
| 20260903023600 | 54 | 315 | 2.0 | 12.0 | 0.00 | 0.00 | 0.00 | 56 | 1020.2 |
| 20260903023105 | 54 | 306 | 2.0 | 12.0 | 0.00 | 0.00 | 0.00 | 54 | 1020.1 |
| 20260903022556 | 54 | 9 | 3.0 | 12.0 | 0.00 | 0.00 | 0.00 | 53 | 1020.2 |
| 20260903022056 | 54 | 9 | 2.0 | 7.0 | 0.00 | 0.00 | 0.00 | 54 | 1020.0 |
| 20260903021605 | 54 | 15 | 2.0 | 5.0 | 0.00 | 0.00 | 0.00 | 53 | 1020.0 |
| 20260903021057 | 55 | 15 | 2.0 | 7.0 | 0.00 | 0.00 | 0.00 | 53 | 1020.0 |
| 20260903020556 | 55 | 15 | 2.0 | 8.0 | 0.00 | 0.00 | 0.00 | 53 | 1020.1 |
| 20260903015557 | 55 | 15 | 2.0 | 10.0 | 0.00 | 0.00 | 0.00 | 52 | 1019.9 |
| 20260903015100 | 56 | 15 | 3.0 | 10.0 | 0.00 | 0.00 | 0.00 | 53 | 1019.9 |
| 20260903014651 | 56 | 15 | 2.0 | 8.0 | 0.00 | 0.00 | 0.00 | 52 | 1020.0 |
| 20260903014056 | 56 | 15 | 2.0 | 9.0 | 0.00 | 0.00 | 0.00 | 52 | 1020.0 |
| 20260903013556 | 56 | 15 | 3.0 | 9.0 | 0.00 | 0.00 | 0.00 | 51 | 1020.1 |
| 20260903013102 | 56 | 15 | 3.0 | 11.0 | 0.00 | 0.00 | 0.00 | 50 | 1020.2 |
| 20260903012556 | 57 | 15 | 3.0 | 11.0 | 0.00 | 0.00 | 0.00 | 50 | 1020.0 |
| 20260903012056 | 57 | 15 | 3.0 | 11.0 | 0.00 | 0.00 | 0.00 | 51 | 1019.9 |
| 20260903011611 | 57 | 15 | 2.0 | 7.0 | 0.00 | 0.00 | 0.00 | 52 | 1019.9 |
| 20260903011056 | 57 | 15 | 1.0 | 11.0 | 0.00 | 0.00 | 0.00 | 50 | 1020.0 |
| 20260903010558 | 57 | 15 | 2.0 | 11.0 | 0.00 | 0.00 | 0.00 | 49 | 1020.1 |
| 20260903010108 | 57 | 15 | 3.0 | 9.0 | 0.00 | 0.00 | 0.00 | 49 | 1019.9 |
| 20260903005558 | 58 | 16 | 3.0 | 9.0 | 0.00 | 0.00 | 0.00 | 47 | 1019.9 |
| 20260903005056 | 58 | 15 | 3.0 | 10.0 | 0.00 | 0.00 | 0.00 | 45 | 1019.9 |
| 20260903004604 | 59 | 15 | 3.0 | 10.0 | 0.00 | 0.00 | 0.00 | 48 | 1020.0 |
| 20260903004057 | 59 | 15 | 4.0 | 12.0 | 0.00 | 0.00 | 0.00 | 42 | 1019.9 |
| 20260903003601 | 60 | 16 | 2.0 | 12.0 | 0.00 | 0.00 | 0.00 | 44 | 1020.0 |
| 20260903003105 | 60 | 15 | 4.0 | 12.0 | 0.00 | 0.00 | 0.00 | 43 | 1020.0 |
| 20260903002556 | 60 | 15 | 3.0 | 15.0 | 0.00 | 0.00 | 0.00 | 45 | 1020.0 |
| 20260903002058 | 60 | 16 | 3.0 | 15.0 | 0.00 | 0.00 | 0.00 | 43 | 1020.1 |
| 20260903001602 | 60 | 15 | 3.0 | 13.0 | 0.00 | 0.00 | 0.00 | 41 | 1020.1 |
| 20260903001057 | 61 | 15 | 4.0 | 13.0 | 0.00 | 0.00 | 0.00 | 44 | 1020.1 |
| 20260903000557 | 61 | 15 | 3.0 | 10.0 | 0.00 | 0.00 | 0.00 | 41 | 1020.0 |
| 20260903000107 | 61 | 15 | 4.0 | 11.0 | 0.00 | 0.00 | 0.00 | 41 | 1020.1 |
| 20260902235556 | 61 | 14 | 3.0 | 11.0 | 0.00 | 0.00 | 0.00 | 41 | 1020.1 |
| 20260902235056 | 61 | 15 | 3.0 | 8.0 | 0.00 | 0.00 | 0.00 | 40 | 1020.1 |
| 20260902234606 | 62 | 16 | 2.0 | 10.0 | 0.00 | 0.00 | 0.00 | 40 | 1020.1 |
| 20260902234056 | 61 | 15 | 3.0 | 10.0 | 0.00 | 0.00 | 0.00 | 41 | 1020.1 |
| 20260902233556 | 61 | 15 | 4.0 | 10.0 | 0.00 | 0.00 | 0.00 | 40 | 1020.1 |
| 20260902233104 | 62 | 9 | 2.0 | 10.0 | 0.00 | 0.00 | 0.00 | 41 | 1020.1 |
| 20260902232558 | 62 | 15 | 4.0 | 9.0 | 0.00 | 0.00 | 0.00 | 40 | 1020.0 |
| 20260902232057 | 62 | 17 | 4.0 | 9.0 | 0.00 | 0.00 | 0.00 | 38 | 1020.1 |
| 20260902231610 | 63 | 16 | 3.0 | 11.0 | 0.00 | 0.00 | 0.00 | 38 | 1019.9 |
| 20260902231057 | 63 | 15 | 3.0 | 11.0 | 0.00 | 0.00 | 0.00 | 39 | 1020.0 |
| 20260902230556 | 63 | 15 | 2.0 | 10.0 | 0.00 | 0.00 | 0.00 | 39 | 1020.2 |
| 20260902230107 | 63 | 15 | 3.0 | 8.0 | 0.00 | 0.00 | 0.00 | 39 | 1020.1 |
| 20260902225557 | 63 | 15 | 3.0 | 9.0 | 0.00 | 0.00 | 0.00 | 40 | 1020.0 |
| 20260902225057 | 62 | 15 | 3.0 | 9.0 | 0.00 | 0.00 | 0.00 | 39 | 1020.1 |
| 20260902224604 | 62 | 15 | 4.0 | 11.0 | 0.00 | 0.00 | 0.00 | 37 | 1020.1 |
| 20260902224056 | 62 | 15 | 3.0 | 11.0 | 0.00 | 0.00 | 0.00 | 39 | 1020.1 |
| 20260902223556 | 62 | 5 | 2.0 | 11.0 | 0.00 | 0.00 | 0.00 | 40 | 1020.0 |
| 20260902223108 | 62 | 14 | 2.0 | 11.0 | 0.00 | 0.00 | 0.00 | 39 | 1020.1 |
| 20260902222556 | 62 | 16 | 3.0 | 12.0 | 0.00 | 0.00 | 0.00 | 40 | 1020.1 |
| 20260902222056 | 62 | 15 | 4.0 | 12.0 | 0.00 | 0.00 | 0.00 | 40 | 1020.2 |
| 20260902221604 | 61 | 12 | 5.0 | 13.0 | 0.00 | 0.00 | 0.00 | 37 | 1020.1 |
| 20260902221057 | 62 | 5 | 3.0 | 13.0 | 0.00 | 0.00 | 0.00 | 40 | 1020.3 |
| 20260902220557 | 62 | 15 | 3.0 | 13.0 | 0.00 | 0.00 | 0.00 | 39 | 1020.4 |
| 20260902220112 | 63 | 15 | 2.0 | 13.0 | 0.00 | 0.00 | 0.00 | 40 | 1020.4 |
| 20260902215556 | 62 | 13 | 3.0 | 13.0 | 0.00 | 0.00 | 0.00 | 40 | 1020.2 |
| 20260902215056 | 62 | 5 | 2.0 | 13.0 | 0.00 | 0.00 | 0.00 | 41 | 1020.4 |
| 20260902214605 | 61 | 10 | 5.0 | 16.0 | 0.00 | 0.00 | 0.00 | 41 | 1020.4 |
| 20260902214100 | 62 | 15 | 4.0 | 16.0 | 0.00 | 0.00 | 0.00 | 42 | 1020.2 |
| 20260902213557 | 61 | 9 | 3.0 | 16.0 | 0.00 | 0.00 | 0.00 | 42 | 1020.4 |
| 20260902213107 | 61 | 15 | 4.0 | 16.0 | 0.00 | 0.00 | 0.00 | 45 | 1020.4 |
| 20260902212559 | 60 | 16 | 4.0 | 8.0 | 0.00 | 0.00 | 0.00 | 44 | 1020.5 |
| 20260902212057 | 60 | 15 | 3.0 | 11.0 | 0.00 | 0.00 | 0.00 | 46 | 1020.5 |
| 20260902211604 | 58 | 15 | 3.0 | 13.0 | 0.00 | 0.00 | 0.00 | 45 | 1020.5 |
| 20260902211056 | 58 | 15 | 3.0 | 13.0 | 0.00 | 0.00 | 0.00 | 44 | 1020.5 |
| 20260902210556 | 58 | 15 | 3.0 | 12.0 | 0.00 | 0.00 | 0.00 | 42 | 1020.5 |
| 20260902210103 | 59 | 15 | 3.0 | 13.0 | 0.00 | 0.00 | 0.00 | 43 | 1020.3 |
| 20260902205556 | 60 | 16 | 4.0 | 13.0 | 0.00 | 0.00 | 0.00 | 42 | 1020.3 |
| 20260902205056 | 61 | 16 | 4.0 | 9.0 | 0.00 | 0.00 | 0.00 | 39 | 1020.4 |
| 20260902204608 | 62 | 15 | 3.0 | 11.0 | 0.00 | 0.00 | 0.00 | 40 | 1020.2 |
| 20260902204058 | 63 | 15 | 4.0 | 11.0 | 0.00 | 0.00 | 0.00 | 40 | 1020.4 |
| 20260902203556 | 63 | 15 | 3.0 | 9.0 | 0.00 | 0.00 | 0.00 | 41 | 1020.3 |
| 20260902203107 | 63 | 15 | 3.0 | 8.0 | 0.00 | 0.00 | 0.00 | 44 | 1020.3 |
| 20260902202601 | 62 | 15 | 3.0 | 9.0 | 0.00 | 0.00 | 0.00 | 44 | 1020.2 |
| 20260902202057 | 62 | 15 | 4.0 | 16.0 | 0.00 | 0.00 | 0.00 | 44 | 1020.2 |
| 20260902201606 | 61 | 9 | 3.0 | 16.0 | 0.00 | 0.00 | 0.00 | 43 | 1020.4 |
| 20260902201056 | 61 | 15 | 4.0 | 11.0 | 0.00 | 0.00 | 0.00 | 42 | 1020.6 |
| 20260902200557 | 60 | 15 | 3.0 | 10.0 | 0.00 | 0.00 | 0.00 | 45 | 1020.4 |
| 20260902200119 | 60 | 15 | 2.0 | 10.0 | 0.00 | 0.00 | 0.00 | 46 | 1020.4 |
| 20260902195557 | 60 | 16 | 3.0 | 14.0 | 0.00 | 0.00 | 0.00 | 45 | 1020.4 |
| 20260902195056 | 59 | 9 | 2.0 | 14.0 | 0.00 | 0.00 | 0.00 | 47 | 1020.5 |
| 20260902194607 | 60 | 15 | 3.0 | 9.0 | 0.00 | 0.00 | 0.00 | 46 | 1020.9 |
| 20260902194059 | 60 | 15 | 3.0 | 11.0 | 0.00 | 0.00 | 0.00 | 45 | 1020.6 |
| 20260902193600 | 60 | 15 | 4.0 | 11.0 | 0.00 | 0.00 | 0.00 | 44 | 1020.5 |
| 20260902193107 | 59 | 15 | 3.0 | 9.0 | 0.00 | 0.00 | 0.00 | 47 | 1020.7 |
| 20260902192557 | 59 | 15 | 3.0 | 9.0 | 0.00 | 0.00 | 0.00 | 48 | 1020.7 |
| 20260902192059 | 60 | 15 | 3.0 | 9.0 | 0.00 | 0.00 | 0.00 | 46 | 1020.7 |
| 20260902191604 | 60 | 5 | 3.0 | 11.0 | 0.00 | 0.00 | 0.00 | 45 | 1020.6 |
| 20260902191056 | 60 | 360 | 4.0 | 11.0 | 0.00 | 0.00 | 0.00 | 45 | 1020.8 |
| 20260902190556 | 60 | 15 | 3.0 | 11.0 | 0.00 | 0.00 | 0.00 | 47 | 1020.7 |
| 20260902190104 | 59 | 15 | 2.0 | 9.0 | 0.00 | 0.00 | 0.00 | 47 | 1020.8 |
| 20260902185557 | 59 | 15 | 3.0 | 11.0 | 0.00 | 0.00 | 0.00 | 48 | 1020.9 |
| 20260902185057 | 59 | 5 | 3.0 | 11.0 | 0.00 | 0.00 | 0.00 | 45 | 1020.8 |
| 20260902184658 | 59 | 15 | 2.0 | 11.0 | 0.00 | 0.00 | 0.00 | 45 | 1020.7 |
| 20260902184056 | 59 | 5 | 3.0 | 9.0 | 0.00 | 0.00 | 0.00 | 49 | 1020.7 |
| 20260902183557 | 58 | 5 | 4.0 | 12.0 | 0.00 | 0.00 | 0.00 | 46 | 1020.7 |
| 20260902183108 | 58 | 13 | 3.0 | 12.0 | 0.00 | 0.00 | 0.00 | 49 | 1020.8 |
| 20260902182556 | 58 | 15 | 4.0 | 11.0 | 0.00 | 0.00 | 0.00 | 47 | 1020.7 |
| 20260902182056 | 58 | 15 | 4.0 | 11.0 | 0.00 | 0.00 | 0.00 | 48 | 1020.9 |
| 20260902181604 | 58 | 15 | 3.0 | 10.0 | 0.00 | 0.00 | 0.00 | 48 | 1020.8 |
| 20260902181056 | 57 | 15 | 3.0 | 11.0 | 0.00 | 0.00 | 0.00 | 51 | 1020.7 |
| 20260902180556 | 56 | 15 | 4.0 | 11.0 | 0.00 | 0.00 | 0.00 | 49 | 1020.9 |
| 20260902180132 | 56 | 15 | 5.0 | 11.0 | 0.00 | 0.00 | 0.00 | 51 | 1020.7 |
| 20260902175556 | 56 | 11 | 4.0 | 17.0 | 0.00 | 0.00 | 0.00 | 52 | 1020.9 |
| 20260902175056 | 55 | 15 | 4.0 | 17.0 | 0.00 | 0.00 | 0.00 | 52 | 1020.7 |
| 20260902174601 | 55 | 15 | 4.0 | 16.0 | 0.00 | 0.00 | 0.00 | 53 | 1020.6 |
| 20260902174100 | 54 | 15 | 5.0 | 16.0 | 0.00 | 0.00 | 0.00 | 53 | 1020.8 |
| 20260902173557 | 54 | 16 | 3.0 | 21.0 | 0.00 | 0.00 | 0.00 | 55 | 1020.7 |
| 20260902173105 | 54 | 15 | 4.0 | 21.0 | 0.00 | 0.00 | 0.00 | 53 | 1020.6 |
| 20260902172558 | 54 | 15 | 4.0 | 16.0 | 0.00 | 0.00 | 0.00 | 55 | 1020.4 |
| 20260902172057 | 53 | 15 | 5.0 | 20.0 | 0.00 | 0.00 | 0.00 | 55 | 1020.3 |
| 20260902171606 | 53 | 16 | 3.0 | 20.0 | 0.00 | 0.00 | 0.00 | 55 | 1020.5 |
| 20260902171058 | 52 | 15 | 5.0 | 21.0 | 0.00 | 0.00 | 0.00 | 56 | 1020.3 |
| 20260902170556 | 52 | 16 | 5.0 | 21.0 | 0.00 | 0.00 | 0.00 | 56 | 1020.3 |
| 20260902170104 | 52 | 9 | 5.0 | 21.0 | 0.00 | 0.00 | 0.00 | 56 | 1020.3 |
| 20260902165556 | 51 | 9 | 4.0 | 14.0 | 0.00 | 0.00 | 0.00 | 58 | 1020.3 |
| 20260902165056 | 51 | 9 | 4.0 | 14.0 | 0.00 | 0.00 | 0.00 | 58 | 1020.3 |
| 20260902164602 | 51 | 15 | 5.0 | 16.0 | 0.00 | 0.00 | 0.00 | 58 | 1020.1 |
| 20260902164057 | 51 | 15 | 6.0 | 16.0 | 0.00 | 0.00 | 0.00 | 58 | 1020.2 |
| 20260902163557 | 50 | 15 | 5.0 | 28.0 | 0.00 | 0.00 | 0.00 | 59 | 1019.9 |
| 20260902163105 | 50 | 16 | 3.0 | 28.0 | 0.00 | 0.00 | 0.00 | 60 | 1019.8 |
| 20260902162556 | 50 | 9 | 5.0 | 12.0 | 0.00 | 0.00 | 0.00 | 61 | 1020.3 |
| 20260902162057 | 50 | 15 | 4.0 | 12.0 | 0.00 | 0.00 | 0.00 | 61 | 1019.9 |
| 20260902161602 | 50 | 16 | 5.0 | 12.0 | 0.00 | 0.00 | 0.00 | 60 | 1020.2 |
| 20260902161056 | 50 | 9 | 5.0 | 12.0 | 0.00 | 0.00 | 0.00 | 62 | 1019.9 |
| 20260902160556 | 50 | 16 | 4.0 | 9.0 | 0.00 | 0.00 | 0.00 | 62 | 1019.9 |
| 20260902160111 | 49 | 9 | 2.0 | 9.0 | 0.00 | 0.00 | 0.00 | 64 | 1019.9 |
| 20260902155557 | 49 | 16 | 0.0 | 5.0 | 0.00 | 0.00 | 0.00 | 68 | 1019.7 |
| 20260902155057 | 49 | 11 | 1.0 | 8.0 | 0.00 | 0.00 | 0.00 | 68 | 1019.8 |
| 20260902154605 | 49 | 5 | 0.0 | 8.0 | 0.00 | 0.00 | 0.00 | 65 | 1019.8 |
| 20260902154056 | 49 | 15 | 1.0 | 14.0 | 0.00 | 0.00 | 0.00 | 67 | 1019.9 |
| 20260902153556 | 48 | 0 | 1.0 | 14.0 | 0.00 | 0.00 | 0.00 | 65 | 1019.9 |
| 20260902153105 | 48 | 9 | 2.0 | 14.0 | 0.00 | 0.00 | 0.00 | 65 | 1019.9 |
| 20260902152556 | 48 | 9 | 1.0 | 5.0 | 0.00 | 0.00 | 0.00 | 69 | 1019.9 |
| 20260902152056 | 48 | 9 | 0.0 | 5.0 | 0.00 | 0.00 | 0.00 | 67 | 1019.9 |
| 20260902151605 | 48 | 10 | 0.0 | 5.0 | 0.00 | 0.00 | 0.00 | 71 | 1019.9 |
| 20260902151057 | 48 | 15 | 0.0 | 3.0 | 0.00 | 0.00 | 0.00 | 66 | 1019.9 |
| 20260902150557 | 48 | 5 | 0.0 | 3.0 | 0.00 | 0.00 | 0.00 | 67 | 1020.0 |
| 20260902150105 | 48 | 13 | 0.0 | 7.0 | 0.00 | 0.00 | 0.00 | 66 | 1019.8 |
| 20260902145556 | 49 | 15 | 1.0 | 8.0 | 0.00 | 0.00 | 0.00 | 69 | 1019.7 |
| 20260902145056 | 49 | 15 | 0.0 | 8.0 | 0.00 | 0.00 | 0.00 | 66 | 1019.7 |
| 20260902144604 | 49 | 15 | 1.0 | 11.0 | 0.00 | 0.00 | 0.00 | 65 | 1019.7 |
| 20260902144057 | 49 | 17 | 3.0 | 11.0 | 0.00 | 0.00 | 0.00 | 66 | 1019.8 |
| 20260902143556 | 49 | 15 | 3.0 | 10.0 | 0.00 | 0.00 | 0.00 | 66 | 1019.6 |
| 20260902143108 | 49 | 9 | 2.0 | 10.0 | 0.00 | 0.00 | 0.00 | 66 | 1019.5 |
| 20260902142557 | 48 | 15 | 2.0 | 12.0 | 0.00 | 0.00 | 0.00 | 65 | 1019.5 |
| 20260902142057 | 48 | 15 | 2.0 | 12.0 | 0.00 | 0.00 | 0.00 | 66 | 1019.4 |
| 20260902141604 | 48 | 15 | 2.0 | 12.0 | 0.00 | 0.00 | 0.00 | 65 | 1019.3 |
| 20260902141057 | 48 | 15 | 0.0 | 11.0 | 0.00 | 0.00 | 0.00 | 65 | 1019.4 |
| 20260902140557 | 48 | 0 | 3.0 | 11.0 | 0.00 | 0.00 | 0.00 | 65 | 1019.5 |
| 20260902135556 | 47 | 10 | 0.0 | 5.0 | 0.00 | 0.00 | 0.00 | 66 | 1019.4 |
| 20260902135100 | 47 | 0 | 1.0 | 3.0 | 0.00 | 0.00 | 0.00 | 65 | 1019.3 |
| 20260902134608 | 47 | 15 | 0.0 | 8.0 | 0.00 | 0.00 | 0.00 | 66 | 1019.1 |
| 20260902134056 | 46 | 11 | 0.0 | 8.0 | 0.00 | 0.00 | 0.00 | 67 | 1019.2 |
| 20260902133558 | 46 | 15 | 1.0 | 4.0 | 0.00 | 0.00 | 0.00 | 68 | 1019.0 |
| 20260902133105 | 45 | 0 | 0.0 | 1.0 | 0.00 | 0.00 | 0.00 | 68 | 1018.8 |
| 20260902132556 | 45 | 0 | 0.0 | 2.0 | 0.00 | 0.00 | 0.00 | 65 | 1018.9 |
| 20260902132056 | 45 | 0 | 0.0 | 3.0 | 0.00 | 0.00 | 0.00 | 66 | 1018.8 |
| 20260902131607 | 45 | 0 | 0.0 | 3.0 | 0.00 | 0.00 | 0.00 | 65 | 1018.7 |
| 20260902131100 | 46 | 10 | 1.0 | 3.0 | 0.00 | 0.00 | 0.00 | 61 | 1018.7 |
| 20260902130600 | 46 | 10 | 1.0 | 3.0 | 0.00 | 0.00 | 0.00 | 61 | 1018.6 |
| 20260902130106 | 46 | 0 | 0.0 | 3.0 | 0.00 | 0.00 | 0.00 | 60 | 1018.5 |
| 20260902125557 | 47 | 0 | 1.0 | 3.0 | 0.00 | 0.00 | 0.00 | 58 | 1018.8 |
| 20260902125057 | 47 | 16 | 0.0 | 2.0 | 0.00 | 0.00 | 0.00 | 59 | 1018.7 |
| 20260902124611 | 47 | 11 | 0.0 | 2.0 | 0.00 | 0.00 | 0.00 | 58 | 1018.7 |
| 20260902124056 | 47 | 0 | 0.0 | 11.0 | 0.00 | 0.00 | 0.00 | 58 | 1018.6 |
| 20260902123556 | 47 | 0 | 1.0 | 11.0 | 0.00 | 0.00 | 0.00 | 57 | 1018.5 |
| 20260902123105 | 47 | 0 | 0.0 | 8.0 | 0.00 | 0.00 | 0.00 | 57 | 1018.5 |
| 20260902122601 | 48 | 16 | 1.0 | 11.0 | 0.00 | 0.00 | 0.00 | 56 | 1018.5 |
| 20260902122059 | 48 | 15 | 2.0 | 11.0 | 0.00 | 0.00 | 0.00 | 55 | 1018.4 |
| 20260902121614 | 48 | 16 | 2.0 | 9.0 | 0.00 | 0.00 | 0.00 | 54 | 1018.5 |
| 20260902121057 | 48 | 9 | 3.0 | 9.0 | 0.00 | 0.00 | 0.00 | 54 | 1018.4 |
| 20260902120556 | 48 | 15 | 2.0 | 8.0 | 0.00 | 0.00 | 0.00 | 54 | 1018.7 |
| 20260902120104 | 48 | 5 | 3.0 | 10.0 | 0.00 | 0.00 | 0.00 | 53 | 1018.6 |
| 20260902115557 | 48 | 15 | 2.0 | 10.0 | 0.00 | 0.00 | 0.00 | 54 | 1018.7 |
| 20260902115057 | 48 | 13 | 3.0 | 13.0 | 0.00 | 0.00 | 0.00 | 53 | 1018.8 |
| 20260902114606 | 49 | 16 | 3.0 | 13.0 | 0.00 | 0.00 | 0.00 | 53 | 1018.8 |
| 20260902114057 | 49 | 15 | 3.0 | 10.0 | 0.00 | 0.00 | 0.00 | 52 | 1018.7 |
| 20260902113559 | 49 | 360 | 2.0 | 11.0 | 0.00 | 0.00 | 0.00 | 53 | 1018.7 |
| 20260902113111 | 49 | 12 | 4.0 | 11.0 | 0.00 | 0.00 | 0.00 | 54 | 1018.7 |
| 20260902112556 | 49 | 16 | 2.0 | 11.0 | 0.00 | 0.00 | 0.00 | 53 | 1018.9 |
| 20260902112059 | 49 | 15 | 3.0 | 11.0 | 0.00 | 0.00 | 0.00 | 51 | 1018.6 |
| 20260902111605 | 49 | 15 | 3.0 | 10.0 | 0.00 | 0.00 | 0.00 | 52 | 1018.5 |
| 20260902111058 | 49 | 15 | 3.0 | 8.0 | 0.00 | 0.00 | 0.00 | 52 | 1018.5 |
| 20260902110557 | 49 | 5 | 3.0 | 12.0 | 0.00 | 0.00 | 0.00 | 51 | 1018.8 |
| 20260902110121 | 49 | 15 | 3.0 | 12.0 | 0.00 | 0.00 | 0.00 | 53 | 1018.7 |
| 20260902105556 | 49 | 15 | 1.0 | 5.0 | 0.00 | 0.00 | 0.00 | 56 | 1018.9 |
| 20260902105059 | 49 | 15 | 1.0 | 5.0 | 0.00 | 0.00 | 0.00 | 55 | 1018.7 |
| 20260902104601 | 50 | 15 | 1.0 | 10.0 | 0.00 | 0.00 | 0.00 | 54 | 1018.9 |
| 20260902104058 | 50 | 15 | 1.0 | 10.0 | 0.00 | 0.00 | 0.00 | 55 | 1019.0 |
| 20260902103557 | 49 | 15 | 2.0 | 7.0 | 0.00 | 0.00 | 0.00 | 56 | 1019.1 |
| 20260902103105 | 49 | 16 | 2.0 | 7.0 | 0.00 | 0.00 | 0.00 | 54 | 1019.2 |
| 20260902102557 | 49 | 16 | 1.0 | 7.0 | 0.00 | 0.00 | 0.00 | 56 | 1019.1 |
| 20260902102057 | 49 | 15 | 1.0 | 7.0 | 0.00 | 0.00 | 0.00 | 53 | 1019.2 |
| 20260902101607 | 49 | 0 | 0.0 | 8.0 | 0.00 | 0.00 | 0.00 | 54 | 1019.1 |
| 20260902101059 | 50 | 13 | 0.0 | 8.0 | 0.00 | 0.00 | 0.00 | 54 | 1019.0 |
| 20260902100558 | 50 | 0 | 2.0 | 8.0 | 0.00 | 0.00 | 0.00 | 52 | 1018.9 |
| 20260902100113 | 50 | 16 | 0.0 | 7.0 | 0.00 | 0.00 | 0.00 | 51 | 1018.7 |
| 20260902095557 | 50 | 360 | 0.0 | 7.0 | 0.00 | 0.00 | 0.00 | 52 | 1018.7 |
| 20260902095057 | 50 | 16 | 1.0 | 4.0 | 0.00 | 0.00 | 0.00 | 52 | 1018.7 |
| 20260902094604 | 50 | 11 | 2.0 | 12.0 | 0.00 | 0.00 | 0.00 | 53 | 1018.7 |
| 20260902094059 | 50 | 10 | 2.0 | 12.0 | 0.00 | 0.00 | 0.00 | 50 | 1018.6 |
| 20260902093557 | 50 | 15 | 2.0 | 7.0 | 0.00 | 0.00 | 0.00 | 49 | 1018.5 |
| 20260902093104 | 50 | 15 | 1.0 | 8.0 | 0.00 | 0.00 | 0.00 | 49 | 1018.5 |
| 20260902092559 | 50 | 15 | 2.0 | 8.0 | 0.00 | 0.00 | 0.00 | 48 | 1018.5 |
| 20260902092057 | 50 | 15 | 2.0 | 8.0 | 0.00 | 0.00 | 0.00 | 48 | 1018.6 |
| 20260902091603 | 50 | 9 | 2.0 | 10.0 | 0.00 | 0.00 | 0.00 | 48 | 1018.5 |
| 20260902091057 | 50 | 5 | 2.0 | 10.0 | 0.00 | 0.00 | 0.00 | 46 | 1018.5 |
| 20260902090557 | 50 | 15 | 2.0 | 7.0 | 0.00 | 0.00 | 0.00 | 45 | 1018.6 |
| 20260902085600 | 50 | 15 | 1.0 | 7.0 | 0.00 | 0.00 | 0.00 | 45 | 1018.7 |
| 20260902085056 | 50 | 16 | 2.0 | 7.0 | 0.00 | 0.00 | 0.00 | 43 | 1018.8 |
| 20260902084619 | 50 | 5 | 2.0 | 7.0 | 0.00 | 0.00 | 0.00 | 43 | 1018.8 |
| 20260902084057 | 50 | 15 | 1.0 | 10.0 | 0.00 | 0.00 | 0.00 | 44 | 1018.8 |
| 20260902083556 | 50 | 15 | 2.0 | 13.0 | 0.00 | 0.00 | 0.00 | 42 | 1018.9 |
| 20260902083102 | 50 | 15 | 2.0 | 13.0 | 0.00 | 0.00 | 0.00 | 42 | 1018.9 |
| 20260902082557 | 50 | 15 | 3.0 | 10.0 | 0.00 | 0.00 | 0.00 | 41 | 1018.9 |
| 20260902082057 | 50 | 15 | 3.0 | 10.0 | 0.00 | 0.00 | 0.00 | 42 | 1018.9 |
| 20260902081607 | 50 | 15 | 2.0 | 13.0 | 0.00 | 0.00 | 0.00 | 43 | 1019.1 |
| 20260902081057 | 50 | 16 | 1.0 | 13.0 | 0.00 | 0.00 | 0.00 | 43 | 1018.9 |
| 20260902080557 | 50 | 16 | 5.0 | 13.0 | 0.00 | 0.00 | 0.00 | 42 | 1019.0 |
| 20260902080101 | 50 | 13 | 4.0 | 11.0 | 0.00 | 0.00 | 0.00 | 43 | 1019.0 |
| 20260902075556 | 50 | 15 | 4.0 | 10.0 | 0.00 | 0.00 | 0.00 | 45 | 1019.0 |
| 20260902075059 | 50 | 15 | 3.0 | 10.0 | 0.00 | 0.00 | 0.00 | 44 | 1019.0 |
| 20260902074606 | 50 | 16 | 3.0 | 10.0 | 0.00 | 0.00 | 0.00 | 44 | 1018.9 |
| 20260902074058 | 50 | 16 | 3.0 | 10.0 | 0.00 | 0.00 | 0.00 | 43 | 1018.7 |
| 20260902073557 | 50 | 15 | 2.0 | 10.0 | 0.00 | 0.00 | 0.00 | 42 | 1018.7 |
| 20260902073106 | 50 | 15 | 3.0 | 10.0 | 0.00 | 0.00 | 0.00 | 43 | 1018.6 |
| 20260902072557 | 50 | 5 | 3.0 | 10.0 | 0.00 | 0.00 | 0.00 | 43 | 1018.7 |
| 20260902072057 | 50 | 16 | 2.0 | 11.0 | 0.00 | 0.00 | 0.00 | 44 | 1018.7 |
| 20260902071607 | 50 | 16 | 3.0 | 11.0 | 0.00 | 0.00 | 0.00 | 43 | 1018.7 |
| 20260902071057 | 50 | 5 | 2.0 | 16.0 | 0.00 | 0.00 | 0.00 | 44 | 1018.8 |
| 20260902070556 | 51 | 16 | 2.0 | 16.0 | 0.00 | 0.00 | 0.00 | 44 | 1018.5 |
| 20260902070119 | 51 | 9 | 4.0 | 16.0 | 0.00 | 0.00 | 0.00 | 44 | 1018.7 |
| 20260902065556 | 51 | 15 | 1.0 | 18.0 | 0.00 | 0.00 | 0.00 | 46 | 1018.7 |
| 20260902065056 | 51 | 16 | 7.0 | 18.0 | 0.00 | 0.00 | 0.00 | 44 | 1018.6 |
| 20260902064610 | 51 | 15 | 3.0 | 16.0 | 0.00 | 0.00 | 0.00 | 45 | 1018.7 |
| 20260902064057 | 51 | 15 | 2.0 | 16.0 | 0.00 | 0.00 | 0.00 | 44 | 1018.5 |
| 20260902063556 | 52 | 5 | 4.0 | 17.0 | 0.00 | 0.00 | 0.00 | 42 | 1018.7 |
| 20260902063102 | 52 | 16 | 3.0 | 23.0 | 0.00 | 0.00 | 0.00 | 40 | 1018.6 |
| 20260902062559 | 52 | 16 | 6.0 | 23.0 | 0.00 | 0.00 | 0.00 | 40 | 1018.4 |
| 20260902062056 | 51 | 11 | 4.0 | 13.0 | 0.00 | 0.00 | 0.00 | 38 | 1019.1 |
| 20260902061056 | 50 | 16 | 3.0 | 16.0 | 0.00 | 0.00 | 0.00 | 42 | 1018.1 |
| 20260902060557 | 49 | 0 | 0.0 | 7.0 | 0.00 | 0.00 | 0.00 | 45 | 1018.1 |
| 20260902060114 | 48 | 9 | 2.0 | 7.0 | 0.00 | 0.00 | 0.00 | 47 | 1018.2 |
| 20260902055556 | 47 | 9 | 1.0 | 4.0 | 0.00 | 0.00 | 0.00 | 48 | 1018.2 |
| 20260902055056 | 48 | 11 | 0.0 | 2.0 | 0.00 | 0.00 | 0.00 | 54 | 1018.1 |
| 20260902054601 | 48 | 11 | 0.0 | 2.0 | 0.00 | 0.00 | 0.00 | 55 | 1018.5 |
| 20260902054056 | 48 | 11 | 0.0 | 2.0 | 0.00 | 0.00 | 0.00 | 54 | 1018.5 |
| 20260902053557 | 49 | 0 | 0.0 | 4.0 | 0.00 | 0.00 | 0.00 | 53 | 1018.6 |
| 20260902053121 | 49 | 0 | 1.0 | 4.0 | 0.00 | 0.00 | 0.00 | 51 | 1018.5 |
| 20260902052559 | 50 | 10 | 0.0 | 4.0 | 0.00 | 0.00 | 0.00 | 49 | 1018.5 |
| 20260902052057 | 50 | 10 | 0.0 | 2.0 | 0.00 | 0.00 | 0.00 | 51 | 1018.5 |
| 20260902051604 | 51 | 0 | 0.0 | 0.0 | 0.00 | 0.00 | 0.00 | 48 | 1018.6 |
| 20260902051100 | 51 | 0 | 0.0 | 1.0 | 0.00 | 0.00 | 0.00 | 49 | 1018.6 |
| 20260902050555 | 51 | 0 | 0.0 | 2.0 | 0.00 | 0.00 | 0.00 | 48 | 1018.6 |
| 20260902050122 | 51 | 0 | 0.0 | 2.0 | 0.00 | 0.00 | 0.00 | 47 | 1018.5 |
| 20260902045558 | 51 | 0 | 0.0 | 4.0 | 0.00 | 0.00 | 0.00 | 45 | 1018.4 |
| 20260902045057 | 52 | 15 | 1.0 | 4.0 | 0.00 | 0.00 | 0.00 | 45 | 1018.5 |
| 20260902044607 | 52 | 0 | 0.0 | 3.0 | 0.00 | 0.00 | 0.00 | 46 | 1018.3 |
| 20260902044058 | 52 | 0 | 0.0 | 10.0 | 0.00 | 0.00 | 0.00 | 44 | 1018.4 |
| 20260902043557 | 52 | 0 | 0.0 | 10.0 | 0.00 | 0.00 | 0.00 | 44 | 1018.4 |
| 20260902043107 | 52 | 0 | 2.0 | 10.0 | 0.00 | 0.00 | 0.00 | 42 | 1018.3 |
| 20260902042557 | 53 | 16 | 2.0 | 9.0 | 0.00 | 0.00 | 0.00 | 43 | 1018.4 |
| 20260902042057 | 53 | 15 | 2.0 | 11.0 | 0.00 | 0.00 | 0.00 | 40 | 1018.3 |
| 20260902041611 | 53 | 15 | 2.0 | 11.0 | 0.00 | 0.00 | 0.00 | 40 | 1018.4 |